Bobo Dioulasso Airport

Jump to: basic info | weather | frequencies | runways | comments

Related pages: nearby airports | nearby navaids | notams | map

Basic information (top)

Codes: BOY DFOO
Location: lon 11.160100, lat -4.330970, elev 1,511 ft / 461 m msl
Status: medium_airport
Scheduled airline service: yes
Links: Wikipedia Mobile

Weather (top)

Current conditions (rec'd 2014/09/01 10:00Z):

DFOO 011000Z 02022KT 2000 TSRASQ FEW016 FEW033CB OVC120 27/23 Q1016

Airport forecast (rec'd 2014/09/01 18:30Z):

TAF DFOO 011700Z 0118/0218 22010KT 9999 SCT016 PROB30 
      TEMPO 0118/0122 TS SCT016 FEW030CB 
      TEMPO 0122/0210 VRB25KT SQ 3000 TSRA SCT016 SCT030CB

Frequencies (top)

Verify before use: may be inaccurate or out of date.

A/G: 667.3 MHz (AG VOICE RDO)
TWR: 119.7 MHz (TWR)

Runways (top)

06/24: 10,826 x 148 ft (3,300 x 45 m) — paved — lighted

Latest comments (top)

No comments yet for Bobo Dioulasso Airport

More... (top)

See also NOTAMs and nearby airports and navaids, or visit the Bobo Dioulasso Airport page at the main OurAirports website..